When you browse on this site, cookies collect data to enhance your experience and personalize the content and advertising you see.
Visit our Privacy Policy to learn more. By continuing to use the site, you agree to this use of cookies and data.
  • En España
  • Lista de países
  • Para 7 días
  • Temperatura del agua
  • El tiempo en el mapa
  • Informadores
  • user-avatar
    Iniciar sesión

    Tiempo cada hora Aylesbury

    Hoy, 17 Septiembre, Martes

    Tiempo Temperatura Precipitaciones Viento Presión Humedad
    00:00 +12°C° 0 mm 3 mps 760 mmHg 82%
    01:00 +12°C° 0 mm 2 mps 759 mmHg 85%
    02:00 +10°C° 0 mm 2 mps 759 mmHg 88%
    03:00 +9°C° 0 mm 2 mps 759 mmHg 90%
    04:00 +9°C° 0 mm 2 mps 759 mmHg 91%
    05:00 +8°C° 0 mm 2 mps 760 mmHg 92%
    06:00 +8°C° 0 mm 2 mps 760 mmHg 93%
    07:00 +10°C° 0 mm 2 mps 760 mmHg 86%
    08:00 +12°C° 0 mm 2 mps 761 mmHg 78%
    09:00 +13°C° 0 mm 3 mps 761 mmHg 71%
    10:00 +14°C° 0 mm 3 mps 761 mmHg 66%
    11:00 +16°C° 0 mm 3 mps 761 mmHg 61%
    12:00 +17°C° 0 mm 3 mps 761 mmHg 55%
    13:00 +18°C° 0 mm 4 mps 761 mmHg 54%
    14:00 +18°C° 0 mm 4 mps 761 mmHg 53%
    15:00 +18°C° 0 mm 4 mps 761 mmHg 52%
    16:00 +17°C° 0 mm 3 mps 761 mmHg 57%
    17:00 +14°C° 0 mm 3 mps 761 mmHg 62%
    18:00 +13°C° 0 mm 3 mps 761 mmHg 66%
    19:00 +12°C° 0 mm 3 mps 762 mmHg 69%
    20:00 +11°C° 0 mm 3 mps 762 mmHg 73%
    21:00 +8°C° 0 mm 4 mps 763 mmHg 76%
    22:00 +9°C° 0 mm 3 mps 763 mmHg 77%
    23:00 +8°C° 0 mm 3 mps 763 mmHg 78%

    Mañana, 18 Septiembre, Miércoles

    Tiempo Temperatura Precipitaciones Viento Presión Humedad
    00:00 +8°C° 0 mm 2 mps 763 mmHg 79%
    01:00 +7°C° 0 mm 2 mps 763 mmHg 80%
    02:00 +7°C° 0 mm 2 mps 763 mmHg 82%
    03:00 +7°C° 0 mm 2 mps 763 mmHg 84%
    04:00 +7°C° 0 mm 2 mps 764 mmHg 84%
    05:00 +8°C° 0 mm 1 mps 764 mmHg 85%
    06:00 +7°C° 0 mm 1 mps 764 mmHg 86%
    07:00 +8°C° 0 mm 2 mps 764 mmHg 78%
    08:00 +10°C° 0 mm 2 mps 765 mmHg 71%
    09:00 +13°C° 0 mm 2 mps 765 mmHg 63%
    10:00 +14°C° 0 mm 2 mps 765 mmHg 58%
    11:00 +15°C° 0 mm 2 mps 764 mmHg 54%
    12:00 +16°C° 0 mm 2 mps 764 mmHg 50%
    13:00 +17°C° 0 mm 2 mps 764 mmHg 49%
    14:00 +17°C° 0 mm 2 mps 764 mmHg 48%
    15:00 +18°C° 0 mm 2 mps 764 mmHg 48%
    16:00 +16°C° 0 mm 2 mps 764 mmHg 53%
    17:00 +15°C° 0 mm 2 mps 764 mmHg 58%
    18:00 +14°C° 0 mm 1 mps 764 mmHg 63%
    19:00 +13°C° 0 mm 1 mps 764 mmHg 65%
    20:00 +13°C° 0 mm 1 mps 764 mmHg 67%
    21:00 +11°C° 0 mm 0 mps 765 mmHg 69%
    22:00 +11°C° 0 mm 0 mps 765 mmHg 71%
    23:00 +10°C° 0 mm 0 mps 765 mmHg 73%

    Pasado mañana, 19 Septiembre, Jueves

    Tiempo Temperatura Precipitaciones Viento Presión Humedad
    00:00 +10°C° 0 mm 0 mps 765 mmHg 74%
    01:00 +10°C° 0 mm 0 mps 765 mmHg 77%
    02:00 +9°C° 0 mm 0 mps 765 mmHg 79%
    03:00 +10°C° 0 mm 1 mps 765 mmHg 81%
    04:00 +10°C° 0 mm 1 mps 765 mmHg 82%
    05:00 +10°C° 0 mm 1 mps 765 mmHg 83%
    06:00 +10°C° 0 mm 1 mps 765 mmHg 84%
    07:00 +11°C° 0 mm 1 mps 765 mmHg 79%
    08:00 +13°C° 0 mm 1 mps 765 mmHg 73%
    09:00 +15°C° 0 mm 1 mps 766 mmHg 67%
    10:00 +15°C° 0 mm 0 mps 765 mmHg 63%
    11:00 +17°C° 0 mm 0 mps 765 mmHg 59%
    12:00 +19°C° 0 mm 0 mps 765 mmHg 55%
    13:00 +19°C° 0 mm 0 mps 765 mmHg 54%
    14:00 +19°C° 0 mm 0 mps 765 mmHg 53%
    15:00 +19°C° 0 mm 0 mps 765 mmHg 52%
    16:00 +18°C° 0 mm 0 mps 764 mmHg 58%
    17:00 +17°C° 0 mm 0 mps 764 mmHg 63%
    18:00 +15°C° 0 mm 0 mps 764 mmHg 69%
    19:00 +16°C° 0 mm 1 mps 764 mmHg 71%
    20:00 +15°C° 0 mm 1 mps 764 mmHg 73%
    21:00 +14°C° 0 mm 1 mps 765 mmHg 75%
    22:00 +13°C° 0 mm 1 mps 764 mmHg 77%
    23:00 +13°C° 0 mm 1 mps 764 mmHg 79%

    20 Septiembre, Viernes

    Tiempo Temperatura Precipitaciones Viento Presión Humedad
    00:00 +12°C° 0 mm 2 mps 764 mmHg 81%
    01:00 +12°C° 0 mm 1 mps 764 mmHg 83%
    02:00 +12°C° 0 mm 1 mps 764 mmHg 86%
    03:00 +11°C° 0 mm 1 mps 764 mmHg 88%
    04:00 +11°C° 0 mm 1 mps 763 mmHg 89%
    05:00 +11°C° 0 mm 1 mps 763 mmHg 90%
    06:00 +11°C° 0 mm 1 mps 763 mmHg 91%
    07:00 +13°C° 0 mm 2 mps 763 mmHg 85%
    08:00 +13°C° 0 mm 3 mps 763 mmHg 78%
    09:00 +15°C° 0 mm 4 mps 763 mmHg 72%
    10:00 +17°C° 0 mm 4 mps 762 mmHg 66%
    11:00 +18°C° 0 mm 4 mps 762 mmHg 60%
    12:00 +20°C° 0 mm 5 mps 762 mmHg 53%
    13:00 +20°C° 0 mm 5 mps 761 mmHg 50%
    14:00 +20°C° 0 mm 5 mps 760 mmHg 47%
    15:00 +20°C° 0 mm 5 mps 760 mmHg 44%
    16:00 +19°C° 0 mm 5 mps 759 mmHg 49%
    17:00 +16°C° 0 mm 5 mps 759 mmHg 54%
    18:00 +14°C° 0 mm 5 mps 758 mmHg 59%
    19:00 +14°C° 0 mm 4 mps 758 mmHg 62%
    20:00 +13°C° 0 mm 4 mps 758 mmHg 64%
    21:00 +13°C° 0 mm 4 mps 757 mmHg 66%
    22:00 +13°C° 0 mm 4 mps 757 mmHg 65%
    23:00 +12°C° 0 mm 4 mps 756 mmHg 65%

    21 Septiembre, Sábado

    Tiempo Temperatura Precipitaciones Viento Presión Humedad
    00:00 +12°C° 0 mm 4 mps 756 mmHg 64%
    01:00 +12°C° 0 mm 4 mps 755 mmHg 65%
    02:00 +12°C° 0 mm 4 mps 755 mmHg 65%
    03:00 +11°C° 0 mm 4 mps 754 mmHg 65%
    04:00 +11°C° 0 mm 4 mps 754 mmHg 67%
    05:00 +11°C° 0 mm 4 mps 753 mmHg 69%
    06:00 +10°C° 0 mm 4 mps 753 mmHg 71%
    07:00 +12°C° 0 mm 4 mps 753 mmHg 67%
    08:00 +13°C° 0 mm 5 mps 752 mmHg 64%
    09:00 +15°C° 0 mm 5 mps 752 mmHg 61%
    10:00 +17°C° 0 mm 5 mps 752 mmHg 58%
    11:00 +19°C° 0 mm 5 mps 751 mmHg 54%
    12:00 +21°C° 0 mm 5 mps 751 mmHg 50%
    13:00 +22°C° 0 mm 6 mps 750 mmHg 52%
    14:00 +22°C° 0 mm 6 mps 750 mmHg 53%
    15:00 +23°C° 0 mm 6 mps 749 mmHg 55%
    16:00 +22°C° 0.1 mm 5 mps 749 mmHg 61%
    17:00 +21°C° 0.1 mm 4 mps 748 mmHg 66%
    18:00 +19°C° 0.1 mm 3 mps 748 mmHg 72%
    19:00 +19°C° 0.6 mm 3 mps 748 mmHg 76%
    20:00 +18°C° 0.6 mm 4 mps 748 mmHg 80%
    21:00 +18°C° 0.6 mm 4 mps 748 mmHg 84%
    22:00 +18°C° 0.2 mm 4 mps 748 mmHg 86%
    23:00 +16°C° 0.2 mm 5 mps 748 mmHg 88%

    22 Septiembre, Domingo

    Tiempo Temperatura Precipitaciones Viento Presión Humedad
    00:00 +16°C° 0.2 mm 5 mps 748 mmHg 91%
    01:00 +15°C° 0 mm 5 mps 748 mmHg 92%
    02:00 +15°C° 0 mm 4 mps 748 mmHg 93%
    03:00 +15°C° 0 mm 4 mps 748 mmHg 94%
    04:00 +15°C° 0 mm 5 mps 748 mmHg 94%
    05:00 +15°C° 0 mm 5 mps 748 mmHg 94%
    06:00 +15°C° 0 mm 5 mps 748 mmHg 94%
    07:00 +16°C° 0.7 mm 5 mps 748 mmHg 93%
    08:00 +16°C° 0.7 mm 5 mps 748 mmHg 92%
    09:00 +16°C° 0.7 mm 5 mps 748 mmHg 91%
    10:00 +17°C° 0.3 mm 6 mps 749 mmHg 82%
    11:00 +19°C° 0.3 mm 6 mps 749 mmHg 73%
    12:00 +20°C° 0.3 mm 6 mps 749 mmHg 64%
    13:00 +20°C° 0.1 mm 6 mps 749 mmHg 63%
    14:00 +20°C° 0.1 mm 6 mps 750 mmHg 61%
    15:00 +20°C° 0.1 mm 6 mps 750 mmHg 60%
    16:00 +17°C° 0 mm 5 mps 750 mmHg 64%
    17:00 +17°C° 0 mm 4 mps 751 mmHg 68%
    18:00 +16°C° 0 mm 3 mps 751 mmHg 72%
    19:00 +14°C° 0 mm 3 mps 752 mmHg 75%
    20:00 +13°C° 0 mm 3 mps 752 mmHg 79%
    21:00 +13°C° 0 mm 4 mps 753 mmHg 82%
    22:00 +12°C° 0 mm 4 mps 753 mmHg 85%
    23:00 +12°C° 0 mm 4 mps 754 mmHg 88%
    Mostrar más